,,,PA_Meas_PMT16A,,PR_Meas_QMR101_102,,RH_Meas_QMH101,,SR_Meas_QMS101,,TA_Meas_QMH101,,GenWind,,GenWind,
date,time,status,PA,status,PR,status,RH,status,SR,status,TA,status,DirAvg,status,SpdAvg,
2010-10-18, 00:00:04,VALID,1005.92,VALID,0,VALID,78.2418,VALID,476.97,VALID,27.0336,VALID,297,VALID,0.895703,
2010-10-18, 00:01:04,VALID,1005.91,VALID,0,VALID,79.1344,VALID,464.902,VALID,27.2285,VALID,339,VALID,0.331641,
2010-10-18, 00:02:04,VALID,1005.92,VALID,0,VALID,76.7389,VALID,475.361,VALID,27.3454,VALID,2,VALID,0.854297,
2010-10-18, 00:03:04,VALID,1005.93,VALID,0,VALID,75.442,VALID,488.233,VALID,27.4428,VALID,356,VALID,0.919141,
2010-10-18, 00:04:04,VALID,1005.96,VALID,0,VALID,76.0218,VALID,407.984,VALID,27.5013,VALID,7,VALID,0.803125,
2010-10-18, 00:05:04,VALID,1005.97,VALID,0,VALID,74.9995,VALID,433.829,VALID,27.5792,VALID,351,VALID,1.18555,
2010-10-18, 00:06:04,VALID,1006.01,VALID,0,VALID,75.381,VALID,292.839,VALID,27.6572,VALID,269,VALID,0.357812,
2010-10-18, 00:07:04,VALID,1006.04,VALID,0,VALID,74.023,VALID,268.402,VALID,27.7157,VALID,318,VALID,0.950391,
2010-10-18, 00:08:04,VALID,1006.02,VALID,0,VALID,74.1222,VALID,266.19,VALID,27.6008,VALID,343,VALID,0.682422,
2010-10-18, 00:09:04,VALID,1006.05,VALID,0,VALID,75.0606,VALID,288.213,VALID,27.5598,VALID,281,VALID,0.637891,
2010-10-18, 00:10:04,VALID,1006.08,VALID,0,VALID,74.4808,VALID,354.786,VALID,27.5618,VALID,359,VALID,1.35039,
2010-10-18, 00:11:04,VALID,1006.07,VALID,0,VALID,75.442,VALID,409.392,VALID,27.4839,VALID,355,VALID,0.995313,
2010-10-18, 00:12:04,VALID,1006.12,VALID,0,VALID,74.8698,VALID,418.845,VALID,27.4839,VALID,2,VALID,1.44492,
2010-10-18, 00:13:04,VALID,1006.12,VALID,0,VALID,73.9391,VALID,380.228,VALID,27.5813,VALID,250,VALID,0.35625,
2010-10-18, 00:14:04,VALID,1006.1,VALID,0,VALID,73.8704,VALID,394.408,VALID,27.7178,VALID,257,VALID,0.973437,
2010-10-18, 00:15:04,VALID,1006.11,VALID,0,VALID,74.3282,VALID,285.297,VALID,27.7957,VALID,235,VALID,0.521875,
2010-10-18, 00:16:04,VALID,1006.12,VALID,0,VALID,72.3599,VALID,251.307,VALID,27.8953,VALID,270,VALID,0.470703,
2010-10-18, 00:17:04,VALID,1006.08,VALID,0,VALID,71.8717,VALID,235.82,VALID,27.9516,VALID,46,VALID,0.382813,
2010-10-18, 00:18:04,VALID,1006.08,VALID,0,VALID,72.7337,VALID,230.088,VALID,27.9906,VALID,261,VALID,0.354688,
2010-10-18, 00:19:04,VALID,1006.09,VALID,0,VALID,70.4985,VALID,234.312,VALID,27.969,VALID,297,VALID,0.554297,
2010-10-18, 00:20:04,VALID,1006.09,VALID,0,VALID,72.0014,VALID,263.475,VALID,27.9127,VALID,319,VALID,0.240625,
2010-10-18, 00:21:04,VALID,1006.1,VALID,0,VALID,74.5265,VALID,332.059,VALID,27.9516,VALID,352,VALID,0.307813,
2010-10-18, 00:22:04,VALID,1006.11,VALID,0,VALID,72.3065,VALID,360.619,VALID,28.0275,VALID,289,VALID,0.464844,
2010-10-18, 00:23:04,VALID,1006.12,VALID,0,VALID,73.5043,VALID,300.683,VALID,28.166,VALID,280,VALID,0.284375,
2010-10-18, 00:24:04,VALID,1006.17,VALID,0,VALID,72.4896,VALID,343.624,VALID,28.2635,VALID,268,VALID,0.613672,
2010-10-18, 00:25:04,VALID,1006.19,VALID,0,VALID,72.2913,VALID,263.877,VALID,28.2635,VALID,273,VALID,0.858594,
2010-10-18, 00:26:04,VALID,1006.23,VALID,0,VALID,72.4438,VALID,262.268,VALID,28.205,VALID,327,VALID,0.512891,
2010-10-18, 00:27:04,VALID,1006.29,VALID,0,VALID,72.1463,VALID,258.849,VALID,28.1249,VALID,328,VALID,0.485156,
2010-10-18, 00:28:04,VALID,1006.31,VALID,0,VALID,72.5507,VALID,264.38,VALID,28.1466,VALID,340,VALID,0.638281,
2010-10-18, 00:29:04,VALID,1006.34,VALID,0,VALID,73.2373,VALID,309.13,VALID,28.0881,VALID,1,VALID,0.516016,
2010-10-18, 00:30:04,VALID,1006.42,VALID,0,VALID,73.9315,VALID,257.743,VALID,28.1249,VALID,301,VALID,0.503125,
2010-10-18, 00:31:04,VALID,1006.46,VALID,0,VALID,74.8088,VALID,265.386,VALID,28.244,VALID,236,VALID,0.525,
2010-10-18, 00:32:04,VALID,1006.48,VALID,0,VALID,72.5964,VALID,304.303,VALID,28.2614,VALID,228,VALID,0.577734,
2010-10-18, 00:33:04,VALID,1006.49,VALID,0,VALID,73.2525,VALID,332.059,VALID,28.2419,VALID,221,VALID,0.180078,
2010-10-18, 00:34:04,VALID,1006.47,VALID,0,VALID,74.8164,VALID,297.968,VALID,28.2809,VALID,221,VALID,0.483984,
2010-10-18, 00:35:04,VALID,1006.5,VALID,0,VALID,73.634,VALID,306.516,VALID,28.322,VALID,243,VALID,0.458984,
2010-10-18, 00:36:04,VALID,1006.5,VALID,0,VALID,73.7026,VALID,353.378,VALID,28.3588,VALID,282,VALID,0.987109,
2010-10-18, 00:37:04,VALID,1006.49,VALID,0,VALID,73.4051,VALID,409.794,VALID,28.3978,VALID,245,VALID,0.432813,
2010-10-18, 00:38:04,VALID,1006.52,VALID,0,VALID,71.6123,VALID,501.407,VALID,28.5364,VALID,237,VALID,0.486328,
2010-10-18, 00:39:04,VALID,1006.5,VALID,0,VALID,71.597,VALID,577.734,VALID,28.6317,VALID,269,VALID,0.514844,
2010-10-18, 00:40:04,VALID,1006.49,VALID,0,VALID,71.2385,VALID,588.193,VALID,28.7682,VALID,239,VALID,0.484375,
2010-10-18, 00:41:04,VALID,1006.51,VALID,0,VALID,70.2315,VALID,614.037,VALID,28.8851,VALID,270,VALID,0.287891,
2010-10-18, 00:42:04,VALID,1006.49,VALID,0,VALID,69.461,VALID,550.28,VALID,28.9631,VALID,30,VALID,0.452344,
2010-10-18, 00:43:04,VALID,1006.49,VALID,0,VALID,68.4158,VALID,567.577,VALID,29.1018,VALID,18,VALID,0.590625,
2010-10-18, 00:44:04,VALID,1006.49,VALID,0,VALID,69.0185,VALID,508.849,VALID,29.1191,VALID,360,VALID,0.852344,
2010-10-18, 00:45:04,VALID,1006.47,VALID,0,VALID,70.3307,VALID,423.169,VALID,29.0996,VALID,300,VALID,0.580469,
2010-10-18, 00:46:04,VALID,1006.51,VALID,0,VALID,68.4616,VALID,456.757,VALID,29.1776,VALID,292,VALID,1.05,
2010-10-18, 00:47:04,VALID,1006.52,VALID,0,VALID,68.4463,VALID,420.956,VALID,29.1603,VALID,179,VALID,0.992578,
2010-10-18, 00:48:04,VALID,1006.48,VALID,0,VALID,69.4381,VALID,486.825,VALID,29.0433,VALID,122,VALID,0.800781,
2010-10-18, 00:49:04,VALID,1006.51,VALID,0,VALID,70.1323,VALID,430.711,VALID,28.9263,VALID,97,VALID,0.419922,
2010-10-18, 00:50:04,VALID,1006.5,VALID,0,VALID,70.4298,VALID,365.345,VALID,29.0021,VALID,97,VALID,0.235547,
2010-10-18, 00:51:04,VALID,1006.47,VALID,0,VALID,69.2168,VALID,411.202,VALID,29.0216,VALID,87,VALID,0.537109,
2010-10-18, 00:52:04,VALID,1006.47,VALID,0,VALID,70.3459,VALID,388.776,VALID,28.9848,VALID,24,VALID,0.666406,
2010-10-18, 00:53:04,VALID,1006.5,VALID,0,VALID,70.2849,VALID,347.546,VALID,29.0021,VALID,276,VALID,0.827344,
2010-10-18, 00:54:04,VALID,1006.47,VALID,0,VALID,69.8577,VALID,349.959,VALID,29.0628,VALID,325,VALID,0.577344,
2010-10-18, 00:55:04,VALID,1006.47,VALID,0,VALID,69.8043,VALID,410.196,VALID,29.0628,VALID,330,VALID,0.703125,
2010-10-18, 00:56:04,VALID,1006.46,VALID,0,VALID,69.522,VALID,499.194,VALID,29.1018,VALID,300,VALID,0.585938,
2010-10-18, 00:57:04,VALID,1006.41,VALID,0,VALID,70.857,VALID,489.038,VALID,29.1971,VALID,300,VALID,0.513672,
2010-10-18, 00:58:04,VALID,1006.44,VALID,0,VALID,68.4616,VALID,457.964,VALID,29.3553,VALID,313,VALID,0.600391,
2010-10-18, 00:59:04,VALID,1006.38,VALID,0,VALID,67.0502,VALID,393.704,VALID,29.3335,VALID,323,VALID,0.762891,
2010-10-18, 01:00:04,VALID,1006.36,VALID,0,VALID,68.843,VALID,315.064,VALID,29.2166,VALID,319,VALID,0.292188,
2010-10-18, 01:01:04,VALID,1006.37,VALID,0,VALID,69.0643,VALID,294.75,VALID,29.1581,VALID,277,VALID,0.46875,
2010-10-18, 01:02:04,VALID,1006.33,VALID,0,VALID,68.7667,VALID,294.951,VALID,29.0801,VALID,224,VALID,0.36875,
2010-10-18, 01:03:04,VALID,1006.34,VALID,0,VALID,69.4762,VALID,297.164,VALID,29.0411,VALID,224,VALID,0.164844,
2010-10-18, 01:04:04,VALID,1006.33,VALID,0,VALID,70.201,VALID,300.382,VALID,29.0021,VALID,98,VALID,0.440234,
2010-10-18, 01:05:04,VALID,1006.33,VALID,0,VALID,69.6288,VALID,301.689,VALID,28.9826,VALID,333,VALID,0.332422,
2010-10-18, 01:06:04,VALID,1006.34,VALID,0,VALID,69.2779,VALID,304.505,VALID,29.0628,VALID,315,VALID,0.576563,
2010-10-18, 01:07:04,VALID,1006.32,VALID,0,VALID,70.8494,VALID,309.834,VALID,29.0606,VALID,265,VALID,0.867969,
2010-10-18, 01:08:04,VALID,1006.3,VALID,0,VALID,68.1335,VALID,316.572,VALID,29.0021,VALID,287,VALID,0.985937,
2010-10-18, 01:09:04,VALID,1006.32,VALID,0,VALID,71.2919,VALID,320.092,VALID,28.9653,VALID,252,VALID,0.188281,
2010-10-18, 01:10:04,VALID,1006.33,VALID,0,VALID,70.6892,VALID,326.025,VALID,28.9653,VALID,261,VALID,0.630469,
2010-10-18, 01:11:04,VALID,1006.29,VALID,0,VALID,71.6657,VALID,331.053,VALID,29.0065,VALID,228,VALID,0.386719,
2010-10-18, 01:12:04,VALID,1006.27,VALID,0,VALID,72.7871,VALID,339.802,VALID,29.026,VALID,228,VALID,0.562891,
2010-10-18, 01:13:04,VALID,1006.25,VALID,0,VALID,71.3605,VALID,346.64,VALID,28.9458,VALID,209,VALID,0.75625,
2010-10-18, 01:14:04,VALID,1006.25,VALID,0,VALID,71.9861,VALID,354.987,VALID,28.9068,VALID,242,VALID,0.523828,
2010-10-18, 01:15:04,VALID,1006.2,VALID,0,VALID,71.8564,VALID,333.266,VALID,28.9263,VALID,224,VALID,0.592578,
2010-10-18, 01:16:04,VALID,1006.22,VALID,0,VALID,71.063,VALID,325.924,VALID,28.9458,VALID,264,VALID,0.416797,
2010-10-18, 01:17:04,VALID,1006.18,VALID,0,VALID,71.4063,VALID,335.88,VALID,29.0628,VALID,294,VALID,0.911328,
2010-10-18, 01:18:04,VALID,1006.19,VALID,0,VALID,70.59,VALID,374.496,VALID,29.1213,VALID,349,VALID,0.638281,
2010-10-18, 01:19:04,VALID,1006.16,VALID,0,VALID,71.4216,VALID,419.046,VALID,29.2383,VALID,277,VALID,0.396484,
2010-10-18, 01:20:04,VALID,1006.17,VALID,0,VALID,70.4375,VALID,334.271,VALID,29.3358,VALID,288,VALID,0.997656,
2010-10-18, 01:21:04,VALID,1006.19,VALID,0,VALID,70.5977,VALID,324.416,VALID,29.3748,VALID,271,VALID,0.76875,
2010-10-18, 01:22:04,VALID,1006.2,VALID,0,VALID,69.4304,VALID,325.824,VALID,29.3943,VALID,284,VALID,1.41523,
2010-10-18, 01:23:04,VALID,1006.21,VALID,0,VALID,69.2321,VALID,335.88,VALID,29.2968,VALID,279,VALID,1.02031,
2010-10-18, 01:24:04,VALID,1006.22,VALID,0,VALID,68.9727,VALID,379.726,VALID,29.1993,VALID,296,VALID,1.00469,
2010-10-18, 01:25:04,VALID,1006.22,VALID,0,VALID,68.4921,VALID,458.165,VALID,29.1386,VALID,297,VALID,1.74219,
2010-10-18, 01:26:04,VALID,1006.2,VALID,0,VALID,71.2614,VALID,568.181,VALID,29.1018,VALID,346,VALID,0.682422,
2010-10-18, 01:27:04,VALID,1006.22,VALID,0,VALID,70.7121,VALID,435.639,VALID,29.1993,VALID,321,VALID,0.652734,
2010-10-18, 01:28:04,VALID,1006.2,VALID,0,VALID,69.1329,VALID,843.321,VALID,29.353,VALID,256,VALID,0.861328,
2010-10-18, 01:29:04,VALID,1006.18,VALID,0,VALID,69.9416,VALID,778.458,VALID,29.5113,VALID,343,VALID,0.340625,
2010-10-18, 01:30:04,VALID,1006.16,VALID,0,VALID,67.5614,VALID,846.74,VALID,29.7235,VALID,289,VALID,2.10938,
2010-10-18, 01:31:04,VALID,1006.14,VALID,0,VALID,68.2327,VALID,834.874,VALID,29.86,VALID,340,VALID,1.06641,
2010-10-18, 01:32:04,VALID,1006.15,VALID,0,VALID,67.5766,VALID,832.963,VALID,30.016,VALID,346,VALID,1.08555,
2010-10-18, 01:33:04,VALID,1006.11,VALID,0,VALID,67.241,VALID,827.532,VALID,30.1915,VALID,10,VALID,0.717969,
2010-10-18, 01:34:04,VALID,1006.11,VALID,0,VALID,66.7451,VALID,810.638,VALID,30.4864,VALID,248,VALID,0.526563,
2010-10-18, 01:35:04,VALID,1006.12,VALID,0,VALID,63.3045,VALID,807.42,VALID,30.779,VALID,279,VALID,1.61094,
2010-10-18, 01:36:04,VALID,1006.11,VALID,0,VALID,63.8461,VALID,811.442,VALID,30.818,VALID,296,VALID,1.76445,
2010-10-18, 01:37:04,VALID,1006.11,VALID,0,VALID,65.6541,VALID,812.146,VALID,30.8375,VALID,251,VALID,0.906641,
2010-10-18, 01:38:04,VALID,1006.12,VALID,0,VALID,63.2968,VALID,821.096,VALID,30.9546,VALID,252,VALID,1.04648,
2010-10-18, 01:39:04,VALID,1006.14,VALID,0,VALID,62.656,VALID,791.933,VALID,31.1301,VALID,292,VALID,0.667578,
2010-10-18, 01:40:04,VALID,1006.13,VALID,0,VALID,62.862,VALID,789.419,VALID,31.2472,VALID,317,VALID,0.991016,
2010-10-18, 01:41:04,VALID,1006.15,VALID,0,VALID,61.9618,VALID,807.822,VALID,31.3057,VALID,289,VALID,1.25039,
2010-10-18, 01:42:04,VALID,1006.11,VALID,0,VALID,62.3356,VALID,786.905,VALID,31.3252,VALID,356,VALID,1.77461,
2010-10-18, 01:43:04,VALID,1006.12,VALID,0,VALID,60.1461,VALID,749.496,VALID,31.2862,VALID,307,VALID,1.36016,
2010-10-18, 01:44:04,VALID,1006.15,VALID,0,VALID,61.5117,VALID,773.731,VALID,31.1692,VALID,266,VALID,1.0457,
2010-10-18, 01:45:04,VALID,1006.13,VALID,0,VALID,63.9758,VALID,744.97,VALID,31.0521,VALID,231,VALID,0.9375,
2010-10-18, 01:46:04,VALID,1006.12,VALID,0,VALID,60.6038,VALID,711.684,VALID,30.9936,VALID,307,VALID,1.01445,
2010-10-18, 01:47:04,VALID,1006.09,VALID,0,VALID,61.6032,VALID,775.139,VALID,30.9546,VALID,255,VALID,0.905078,
2010-10-18, 01:48:04,VALID,1006.1,VALID,0,VALID,64.3267,VALID,763.072,VALID,30.9546,VALID,301,VALID,0.635547,
2010-10-18, 01:49:04,VALID,1006.12,VALID,0,VALID,61.9999,VALID,771.821,VALID,31.1692,VALID,277,VALID,1.8332,
2010-10-18, 01:50:04,VALID,1006.09,VALID,0,VALID,58.7119,VALID,799.073,VALID,31.2691,VALID,292,VALID,1.79023,
2010-10-18, 01:51:04,VALID,1006.08,VALID,0,VALID,61.6261,VALID,825.32,VALID,31.1325,VALID,22,VALID,0.619141,
2010-10-18, 01:52:04,VALID,1006.11,VALID,0,VALID,61.7939,VALID,806.113,VALID,31.113,VALID,232,VALID,0.373047,
2010-10-18, 01:53:04,VALID,1006.08,VALID,0,VALID,62.328,VALID,824.516,VALID,31.2496,VALID,111,VALID,0.560938,
2010-10-18, 01:54:04,VALID,1006.09,VALID,0,VALID,57.9947,VALID,806.716,VALID,31.3276,VALID,292,VALID,2.56055,
2010-10-18, 01:55:04,VALID,1006.06,VALID,0,VALID,59.8867,VALID,822.404,VALID,31.0935,VALID,354,VALID,1.20781,
2010-10-18, 01:56:04,VALID,1006.1,VALID,0,VALID,60.8556,VALID,835.779,VALID,31.0131,VALID,269,VALID,1.38516,
2010-10-18, 01:57:04,VALID,1006.03,VALID,0,VALID,63.2892,VALID,835.175,VALID,30.9936,VALID,283,VALID,0.617188,
2010-10-18, 01:58:04,VALID,1006.03,VALID,0,VALID,65.1659,VALID,775.743,VALID,31.0326,VALID,275,VALID,0.68125,
2010-10-18, 01:59:04,VALID,1006,VALID,0,VALID,62.6331,VALID,857.902,VALID,31.0911,VALID,307,VALID,1.17813,
2010-10-18, 02:00:04,VALID,1006.01,VALID,0,VALID,62.0609,VALID,728.377,VALID,31.2667,VALID,346,VALID,0.728125,
2010-10-18, 02:01:04,VALID,1005.99,VALID,0,VALID,59.7494,VALID,903.96,VALID,31.4618,VALID,293,VALID,1.08242,
2010-10-18, 02:02:04,VALID,1005.99,VALID,0,VALID,56.0036,VALID,623.691,VALID,31.5203,VALID,279,VALID,2.02734,
2010-10-18, 02:03:04,VALID,1005.96,VALID,0,VALID,56.8657,VALID,459.573,VALID,31.3838,VALID,298,VALID,1.32773,
2010-10-18, 02:04:04,VALID,1005.95,VALID,0,VALID,59.49,VALID,425.884,VALID,31.2082,VALID,325,VALID,0.558594,
2010-10-18, 02:05:04,VALID,1005.97,VALID,0,VALID,59.551,VALID,444.589,VALID,31.0888,VALID,265,VALID,1.15937,
2010-10-18, 02:06:04,VALID,1005.94,VALID,0,VALID,59.7265,VALID,597.143,VALID,30.9546,VALID,339,VALID,0.760547,
2010-10-18, 02:07:04,VALID,1005.98,VALID,0,VALID,60.0774,VALID,645.212,VALID,30.857,VALID,265,VALID,0.708594,
2010-10-18, 02:08:04,VALID,1005.97,VALID,0,VALID,58.155,VALID,834.17,VALID,30.818,VALID,297,VALID,2.06914,
2010-10-18, 02:09:04,VALID,1005.96,VALID,0,VALID,57.4836,VALID,837.187,VALID,30.818,VALID,300,VALID,1.15313,
2010-10-18, 02:10:04,VALID,1005.97,VALID,0,VALID,61.3209,VALID,772.726,VALID,30.9155,VALID,231,VALID,0.801172,
2010-10-18, 02:11:04,VALID,1005.98,VALID,0,VALID,56.263,VALID,867.557,VALID,31.0911,VALID,275,VALID,1.04492,
2010-10-18, 02:12:04,VALID,1005.98,VALID,0,VALID,56.6368,VALID,863.635,VALID,31.2301,VALID,277,VALID,1.95156,
2010-10-18, 02:13:04,VALID,1005.96,VALID,0,VALID,57.4302,VALID,802.593,VALID,31.0911,VALID,287,VALID,2.00977,
2010-10-18, 02:14:04,VALID,1005.96,VALID,0,VALID,57.3158,VALID,820.694,VALID,30.9351,VALID,325,VALID,1.44336,
2010-10-18, 02:15:04,VALID,1005.94,VALID,0,VALID,58.5288,VALID,725.159,VALID,30.7595,VALID,272,VALID,1.16289,
2010-10-18, 02:16:04,VALID,1005.9,VALID,0,VALID,58.9026,VALID,739.64,VALID,30.8399,VALID,208,VALID,0.674219,
2010-10-18, 02:17:04,VALID,1005.87,VALID,0,VALID,60.024,VALID,263.676,VALID,30.9351,VALID,211,VALID,0.985547,
2010-10-18, 02:18:04,VALID,1005.81,VALID,0,VALID,58.689,VALID,273.431,VALID,31.035,VALID,264,VALID,0.843359,
2010-10-18, 02:19:04,VALID,1005.78,VALID,0,VALID,59.3908,VALID,672.666,VALID,31.1496,VALID,246,VALID,1.28164,
2010-10-18, 02:20:04,VALID,1005.73,VALID,0,VALID,58.4677,VALID,848.047,VALID,31.2886,VALID,316,VALID,0.959766,
2010-10-18, 02:21:04,VALID,1005.76,VALID,0,VALID,57.1251,VALID,883.244,VALID,31.4033,VALID,333,VALID,1.51289,
2010-10-18, 02:22:04,VALID,1005.73,VALID,0,VALID,56.4156,VALID,784.592,VALID,31.3276,VALID,331,VALID,1.49492,
2010-10-18, 02:23:04,VALID,1005.63,VALID,0,VALID,58.155,VALID,866.45,VALID,31.0935,VALID,326,VALID,1.525,
2010-10-18, 02:24:04,VALID,1005.6,VALID,0,VALID,57.0564,VALID,864.741,VALID,30.9546,VALID,308,VALID,1.55898,
2010-10-18, 02:25:04,VALID,1005.59,VALID,0,VALID,57.9185,VALID,221.037,VALID,30.8765,VALID,208,VALID,2.60391,
2010-10-18, 02:26:04,VALID,1005.6,VALID,0,VALID,61.1684,VALID,871.076,VALID,30.8594,VALID,234,VALID,0.957422,
2010-10-18, 02:27:04,VALID,1005.55,VALID,0,VALID,57.2929,VALID,862.227,VALID,30.9741,VALID,248,VALID,0.753125,
2010-10-18, 02:28:04,VALID,1005.51,VALID,0,VALID,59.8257,VALID,880.63,VALID,31.1887,VALID,284,VALID,0.642187,
2010-10-18, 02:29:04,VALID,1005.46,VALID,0,VALID,61.1531,VALID,893.703,VALID,31.4228,VALID,195,VALID,0.622656,
2010-10-18, 02:30:04,VALID,1005.47,VALID,0,VALID,57.1937,VALID,223.451,VALID,31.6179,VALID,219,VALID,1.24414,
2010-10-18, 02:31:04,VALID,1005.45,VALID,0,VALID,57.6133,VALID,879.624,VALID,31.5984,VALID,230,VALID,0.8375,
2010-10-18, 02:32:04,VALID,1005.4,VALID,0,VALID,56.7665,VALID,883.244,VALID,31.5618,VALID,233,VALID,0.496484,
2010-10-18, 02:33:04,VALID,1005.42,VALID,0,VALID,53.8752,VALID,862.83,VALID,31.5032,VALID,260,VALID,1.38086,
2010-10-18, 02:34:04,VALID,1005.37,VALID,0,VALID,56.9191,VALID,870.272,VALID,31.4837,VALID,293,VALID,1.0457,
2010-10-18, 02:35:04,VALID,1005.36,VALID,0,VALID,57.1937,VALID,869.869,VALID,31.5594,VALID,247,VALID,1.37539,
2010-10-18, 02:36:04,VALID,1005.33,VALID,0,VALID,53.8218,VALID,246.178,VALID,31.5618,VALID,225,VALID,2.01836,
2010-10-18, 02:37:04,VALID,1005.31,VALID,0,VALID,62.7323,VALID,899.234,VALID,31.4057,VALID,272,VALID,0.309766,
2010-10-18, 02:38:04,VALID,1005.27,VALID,0,VALID,57.4684,VALID,874.596,VALID,31.4252,VALID,226,VALID,2.16914,
2010-10-18, 02:39:04,VALID,1005.24,VALID,0,VALID,53.5929,VALID,879.423,VALID,31.3838,VALID,299,VALID,2.01367,
2010-10-18, 02:40:04,VALID,1005.23,VALID,0,VALID,58.3838,VALID,638.374,VALID,31.3643,VALID,207,VALID,1.89766,
2010-10-18, 02:41:04,VALID,1005.15,VALID,0,VALID,57.5218,VALID,813.755,VALID,31.3666,VALID,259,VALID,0.626562,
2010-10-18, 02:42:04,VALID,1005.15,VALID,0,VALID,56.9572,VALID,839.198,VALID,31.4057,VALID,202,VALID,2.05273,
2010-10-18, 02:43:04,VALID,1005.13,VALID,0,VALID,58.2236,VALID,807.822,VALID,31.1325,VALID,203,VALID,1.8543,
2010-10-18, 02:44:04,VALID,1005.07,VALID,0,VALID,58.7347,VALID,814.962,VALID,30.8765,VALID,188,VALID,1.2668,
2010-10-18, 02:45:04,VALID,1005.07,VALID,0,VALID,60.7564,VALID,827.532,VALID,30.6838,VALID,200,VALID,1.80547,
2010-10-18, 02:46:04,VALID,1005.06,VALID,0,VALID,60.6801,VALID,854.785,VALID,30.74,VALID,205,VALID,0.528516,
2010-10-18, 02:47:04,VALID,1005.03,VALID,0,VALID,58.4677,VALID,864.942,VALID,31.074,VALID,253,VALID,1.31445,
2010-10-18, 02:48:04,VALID,1005.02,VALID,0,VALID,59.1772,VALID,881.233,VALID,31.2277,VALID,258,VALID,1.27969,
2010-10-18, 02:49:04,VALID,1005,VALID,0,VALID,60.9166,VALID,879.825,VALID,31.3081,VALID,218,VALID,0.995313,
2010-10-18, 02:50:04,VALID,1005.01,VALID,0,VALID,58.3686,VALID,890.988,VALID,31.4228,VALID,216,VALID,0.984766,
2010-10-18, 02:51:04,VALID,1004.97,VALID,0,VALID,58.8416,VALID,840.203,VALID,31.4618,VALID,214,VALID,1.2457,
2010-10-18, 02:52:04,VALID,1004.97,VALID,0,VALID,59.757,VALID,857.5,VALID,31.5813,VALID,293,VALID,0.932813,
2010-10-18, 02:53:04,VALID,1004.95,VALID,0,VALID,55.8358,VALID,797.062,VALID,31.6008,VALID,229,VALID,1.17266,
2010-10-18, 02:54:04,VALID,1004.94,VALID,0,VALID,54.7982,VALID,798.671,VALID,31.4642,VALID,242,VALID,1.15469,
2010-10-18, 02:55:04,VALID,1004.91,VALID,0,VALID,56.8962,VALID,827.532,VALID,31.4057,VALID,222,VALID,1.30898,
2010-10-18, 02:56:04,VALID,1004.94,VALID,0,VALID,58.0253,VALID,826.024,VALID,31.3081,VALID,225,VALID,1.50312,
2010-10-18, 02:57:04,VALID,1004.9,VALID,0,VALID,52.4562,VALID,864.238,VALID,31.4252,VALID,301,VALID,1.78516,
2010-10-18, 02:58:04,VALID,1004.91,VALID,0,VALID,53.9514,VALID,851.466,VALID,31.5227,VALID,223,VALID,1.4043,
2010-10-18, 02:59:04,VALID,1004.89,VALID,0,VALID,57.2395,VALID,830.047,VALID,31.5813,VALID,268,VALID,0.871875,
2010-10-18, 03:00:04,VALID,1004.86,VALID,0,VALID,55.8663,VALID,825.22,VALID,31.6398,VALID,211,VALID,1.89922,
2010-10-18, 03:01:04,VALID,1004.84,VALID,0,VALID,57.2853,VALID,819.286,VALID,31.3862,VALID,207,VALID,1.47187,
2010-10-18, 03:02:04,VALID,1004.83,VALID,0,VALID,58.1397,VALID,784.693,VALID,31.2496,VALID,218,VALID,1.65742,
2010-10-18, 03:03:04,VALID,1004.82,VALID,0,VALID,56.6063,VALID,744.166,VALID,31.2886,VALID,260,VALID,1.00781,
2010-10-18, 03:04:04,VALID,1004.78,VALID,0,VALID,60.2529,VALID,802.895,VALID,31.4642,VALID,326,VALID,0.511719,
2010-10-18, 03:05:04,VALID,1004.8,VALID,0,VALID,57.5141,VALID,846.137,VALID,31.5813,VALID,210,VALID,0.953906,
2010-10-18, 03:06:04,VALID,1004.77,VALID,0,VALID,58.3228,VALID,266.19,VALID,31.4618,VALID,172,VALID,1.14453,
2010-10-18, 03:07:04,VALID,1004.76,VALID,0,VALID,57.3082,VALID,926.788,VALID,31.4033,VALID,239,VALID,1.05781,
2010-10-18, 03:08:04,VALID,1004.74,VALID,0,VALID,56.5834,VALID,952.029,VALID,31.2277,VALID,214,VALID,1.83086,
2010-10-18, 03:09:04,VALID,1004.74,VALID,0,VALID,61.8855,VALID,971.438,VALID,31.1301,VALID,222,VALID,0.863281,
2010-10-18, 03:10:04,VALID,1004.69,VALID,0,VALID,58.4372,VALID,963.091,VALID,31.3471,VALID,201,VALID,1.89609,
2010-10-18, 03:11:04,VALID,1004.65,VALID,0,VALID,59.6731,VALID,974.656,VALID,31.4447,VALID,204,VALID,1.21992,
2010-10-18, 03:12:04,VALID,1004.64,VALID,0,VALID,56.4842,VALID,1002.21,VALID,31.4423,VALID,186,VALID,2.0457,
2010-10-18, 03:13:04,VALID,1004.63,VALID,0,VALID,59.963,VALID,990.344,VALID,31.4813,VALID,234,VALID,0.972656,
2010-10-18, 03:14:04,VALID,1004.62,VALID,0,VALID,55.9578,VALID,1010.96,VALID,31.4642,VALID,214,VALID,1.40937,
2010-10-18, 03:15:04,VALID,1004.57,VALID,0,VALID,58.9712,VALID,1019.21,VALID,31.2886,VALID,192,VALID,1.87305,
2010-10-18, 03:16:04,VALID,1004.54,VALID,0,VALID,56.942,VALID,1028.86,VALID,31.4228,VALID,207,VALID,1.48008,
2010-10-18, 03:17:04,VALID,1004.54,VALID,0,VALID,57.8879,VALID,1038.82,VALID,31.5399,VALID,241,VALID,1.6082,
2010-10-18, 03:18:04,VALID,1004.54,VALID,0,VALID,57.2395,VALID,1035.5,VALID,31.6764,VALID,275,VALID,1.84727,
2010-10-18, 03:19:04,VALID,1004.54,VALID,0,VALID,57.3082,VALID,995.975,VALID,31.9521,VALID,271,VALID,0.536719,
2010-10-18, 03:20:04,VALID,1004.54,VALID,0,VALID,56.0799,VALID,969.226,VALID,32.1472,VALID,270,VALID,1.61289,
2010-10-18, 03:21:04,VALID,1004.53,VALID,0,VALID,52.6316,VALID,929.906,VALID,32.2838,VALID,279,VALID,1.61836,
2010-10-18, 03:22:04,VALID,1004.53,VALID,0,VALID,53.0894,VALID,822.605,VALID,32.1838,VALID,201,VALID,1.80547,
2010-10-18, 03:23:04,VALID,1004.52,VALID,0,VALID,52.5477,VALID,915.223,VALID,31.8325,VALID,296,VALID,1.74766,
2010-10-18, 03:24:04,VALID,1004.56,VALID,0,VALID,55.8434,VALID,928.9,VALID,31.7935,VALID,258,VALID,0.922266,
2010-10-18, 03:25:04,VALID,1004.51,VALID,0,VALID,57.9108,VALID,957.46,VALID,31.9106,VALID,257,VALID,0.496484,
2010-10-18, 03:26:04,VALID,1004.5,VALID,0,VALID,56.9114,VALID,908.988,VALID,32.1277,VALID,254,VALID,1.56758,
2010-10-18, 03:27:04,VALID,1004.49,VALID,0,VALID,54.5084,VALID,909.894,VALID,32.1862,VALID,208,VALID,1.81289,
2010-10-18, 03:28:04,VALID,1004.46,VALID,0,VALID,59.3298,VALID,885.356,VALID,31.9496,VALID,261,VALID,0.607031,
2010-10-18, 03:29:04,VALID,1004.43,VALID,0,VALID,57.4073,VALID,843.019,VALID,32.0277,VALID,219,VALID,1.39844,
2010-10-18, 03:30:04,VALID,1004.45,VALID,0,VALID,60.7106,VALID,825.622,VALID,31.7155,VALID,232,VALID,2.39883,
2010-10-18, 03:31:04,VALID,1004.45,VALID,0,VALID,62.4729,VALID,838.494,VALID,31.6203,VALID,209,VALID,0.803516,
2010-10-18, 03:32:04,VALID,1004.46,VALID,0,VALID,59.9325,VALID,927.693,VALID,31.7764,VALID,200,VALID,1.3957,
2010-10-18, 03:33:04,VALID,1004.46,VALID,0,VALID,60.6267,VALID,971.438,VALID,31.835,VALID,227,VALID,0.648828,